Weather reports worldwide

Advertisment
Terschelling/Hoorn, Netherlands (6251): temperature & dewpoint: 09.10.2019 20:00:00 - 15.10.2019 20:00:00 (CEST)Terschelling/Hoorn, Netherlands (6251): temperature 5cm: 09.10.2019 20:00:00 - 15.10.2019 20:00:00 (CEST)Terschelling/Hoorn, Netherlands (6251): wind speed & gusts: 09.10.2019 20:00:00 - 15.10.2019 20:00:00 (CEST)Terschelling/Hoorn, Netherlands (6251): wind direction: 09.10.2019 20:00:00 - 15.10.2019 20:00:00 (CEST)Terschelling/Hoorn, Netherlands (6251): reduced air pressure: 09.10.2019 20:00:00 - 15.10.2019 20:00:00 (CEST)Terschelling/Hoorn, Netherlands (6251): visibility: 09.10.2019 20:00:00 - 15.10.2019 20:00:00 (CEST)Terschelling/Hoorn, Netherlands (6251): precipitation: 09.10.2019 20:00:00 - 15.10.2019 20:00:00 (CEST)
Date & Time tt [°C] td [°C] tt 5cm [°C] ff [km/h] ff [kn] fx [km/h] fx [kn] dd ppp [hPa] vv [km] rr [mm]
15.10.2019 20:00:00 13,6 13,2 13,5 12 6 - - S 1005,6 8 -
15.10.2019 19:00:00 13,7 13,3 13,6 11 6 25 14 SW 1005,5 20 0,0
15.10.2019 18:00:00 13,8 13,2 13,8 22 12 29 16 SW 1005,0 3,8 0,1
15.10.2019 17:00:00 14,4 13,4 14,3 18 10 25 14 SSW 1005,0 21 0,0
15.10.2019 16:00:00 14,2 13,3 14,3 18 10 29 16 S 1004,7 11 0,0
15.10.2019 15:00:00 14,1 13,4 14,2 18 10 25 14 S 1004,9 9 0,0
15.10.2019 14:00:00 14,6 13,5 15,3 22 12 25 14 SSW 1004,7 12 0,0
15.10.2019 13:00:00 14,4 13,4 - 18 10 29 16 SSW 1004,3 10 0,0
15.10.2019 12:00:00 14,5 13,3 14,7 22 12 32 18 SSW 1004,6 13 0,0
15.10.2019 11:00:00 14,6 13,4 14,6 25 14 32 18 SSW 1004,4 14 0,0
15.10.2019 10:00:00 13,9 13,1 13,9 14 8 25 14 SSW 1003,6 11 0,0
15.10.2019 09:00:00 13,8 12,9 13,5 22 12 25 14 S 1003,6 14 0,0
15.10.2019 08:00:00 13,8 12,8 13,5 22 12 32 18 SSW 1002,9 20 0,0
15.10.2019 07:00:00 13,5 12,6 13,1 22 12 29 16 SSW 1003,1 15 0,0
15.10.2019 06:00:00 13,8 12,8 13,3 22 12 32 18 SSW 1003,1 9 0,0
15.10.2019 05:00:00 14,4 13,0 14,0 22 12 29 16 S 1002,6 14 0,0
15.10.2019 04:00:00 14,1 13,0 13,5 18 10 22 12 SSE 1003,1 9 0,0
15.10.2019 03:00:00 14,1 13,1 13,7 18 10 29 16 SE 1003,2 8 0,0
15.10.2019 02:00:00 13,7 13,0 13,4 18 10 25 14 ESE 1003,4 7 0,0
15.10.2019 01:00:00 13,8 13,1 13,5 18 10 25 14 ESE 1004,3 8 0,0
15.10.2019 00:00:00 14,1 13,1 13,8 18 10 25 14 SE 1005,7 10 0,0
14.10.2019 23:00:00 13,6 12,8 13,1 18 10 32 18 ESE 1005,4 10 0,0
14.10.2019 22:00:00 13,1 12,2 12,9 25 14 32 18 E 1005,8 12 0,0
14.10.2019 21:00:00 12,9 11,8 12,6 25 14 36 19 E 1006,8 16 0,0
14.10.2019 20:00:00 12,6 11,8 12,2 25 14 43 23 E 1007,7 14 0,0
14.10.2019 19:00:00 12,7 11,4 12,2 36 19 47 25 E 1007,8 21 0,0
14.10.2019 18:00:00 12,5 10,6 12,2 36 19 43 23 E 1008,4 22 0,3
14.10.2019 17:00:00 12,8 10,8 12,7 29 16 36 19 E 1009,5 29 0,0
14.10.2019 16:00:00 13,2 12,0 13,3 22 12 25 14 ENE 1010,7 16 0,2
14.10.2019 15:00:00 12,6 11,9 12,6 11 6 14 8 E 1012,1 12 1,0
14.10.2019 14:00:00 12,9 11,7 13,1 11 6 18 10 ESE 1012,4 16 0,0
14.10.2019 13:00:00 13,1 11,6 13,1 4 2 18 10 ESE 1013,3 15 0,0
14.10.2019 12:00:00 13,1 11,8 13,2 14 8 22 12 SSE 1013,5 21 0,0
14.10.2019 11:00:00 13,3 11,9 13,4 7 4 11 6 S 1013,4 21 0,0
14.10.2019 10:00:00 12,7 11,6 12,7 7 4 11 6 SW 1013,3 21 0,0
14.10.2019 09:00:00 11,9 10,4 11,1 7 4 11 6 WSW 1013,0 18 0,0
14.10.2019 08:00:00 11,4 10,2 11,1 7 4 11 6 SW 1012,5 21 0,0
14.10.2019 07:00:00 11,4 9,7 11,0 7 4 18 10 WSW 1011,8 20 0,0
14.10.2019 06:00:00 12,3 9,6 11,9 14 8 22 12 W 1011,6 21 0,0
14.10.2019 05:00:00 12,2 9,7 11,7 14 8 32 18 W 1011,1 22 0,0
14.10.2019 04:00:00 12,8 9,5 12,2 22 12 36 19 W 1010,5 21 0,0
14.10.2019 03:00:00 13,1 9,9 12,1 25 14 40 21 W 1010,1 21 0,0
14.10.2019 02:00:00 13,3 9,5 12,6 32 18 47 25 W 1009,2 24 0,0
14.10.2019 01:00:00 14,0 10,2 13,3 32 18 50 27 W 1008,3 25 0,0
14.10.2019 00:00:00 14,4 10,8 13,7 36 19 54 29 WSW 1007,4 22 0,0
13.10.2019 23:00:00 14,8 13,2 14,5 32 18 47 25 WSW 1006,3 12 0,0
13.10.2019 22:00:00 14,6 12,8 14,1 36 19 50 27 SW 1005,1 13 0,0
13.10.2019 21:00:00 15,2 13,4 14,6 36 19 54 29 SW 1004,0 11 0,0
13.10.2019 20:00:00 15,8 14,1 15,4 40 21 61 33 SW 1003,5 12 0,0
13.10.2019 19:00:00 16,1 14,4 15,6 40 21 50 27 SW 1002,7 15 0,0
13.10.2019 18:00:00 15,7 14,4 15,3 29 16 54 29 SW 1002,3 16 8,7
13.10.2019 17:00:00 15,6 14,9 15,5 29 16 43 23 SSW 1002,7 5 2,8
13.10.2019 16:00:00 15,3 14,6 15,1 25 14 36 19 S 1002,8 10 0,0
13.10.2019 15:00:00 15,2 14,5 15,2 32 18 40 21 S 1002,9 9 0,0
13.10.2019 14:00:00 15,1 14,3 15,0 25 14 32 18 S 1004,1 8 0,0
13.10.2019 13:00:00 15,3 14,6 14,7 22 12 29 16 SSE 1004,5 6 0,0
13.10.2019 12:00:00 13,9 13,6 13,9 14 8 18 10 SE 1005,6 3,2 0,0
13.10.2019 11:00:00 12,7 12,7 12,7 14 8 25 14 SE 1006,2 1,8 0,0
13.10.2019 10:00:00 11,7 11,6 11,8 18 10 29 16 ESE 1006,5 0,5 0,0
13.10.2019 09:00:00 11,2 10,9 11,3 22 12 32 18 E 1006,8 2,6 0,1
13.10.2019 08:00:00 11,2 10,6 11,1 22 12 25 14 E 1007,3 6 0,2
13.10.2019 07:00:00 11,1 10,7 11,0 22 12 25 14 E 1007,7 13 0,2
13.10.2019 06:00:00 11,0 10,4 10,8 22 12 29 16 SE 1008,3 6 0,0
13.10.2019 05:00:00 10,9 10,2 10,7 18 10 22 12 SE 1008,6 19 0,1
13.10.2019 04:00:00 11,0 10,3 10,8 14 8 22 12 SSE 1009,1 22 0,4
13.10.2019 03:00:00 11,1 10,4 10,9 18 10 25 14 SSE 1009,4 20 0,4
13.10.2019 02:00:00 11,3 10,7 11,1 18 10 25 14 S 1009,6 18 0,6
13.10.2019 01:00:00 11,7 11,0 11,5 18 10 29 16 S 1010,0 15 0,4
13.10.2019 00:00:00 11,8 11,2 11,6 22 12 25 14 S 1009,9 18 0,3
12.10.2019 23:00:00 11,9 11,4 11,9 18 10 22 12 S 1010,2 8 0,3
12.10.2019 22:00:00 12,1 11,5 12,0 18 10 22 12 SSW 1009,7 10 0,2
12.10.2019 21:00:00 12,0 10,8 11,8 18 10 22 12 SSW 1009,1 24 0,0
12.10.2019 20:00:00 12,1 10,5 11,7 18 10 25 14 SW 1009,2 33 0,0
12.10.2019 19:00:00 12,1 10,6 11,7 18 10 29 16 SSW 1008,9 20 0,2
12.10.2019 18:00:00 12,2 9,9 11,9 22 12 32 18 SW 1009,1 22 0,0
12.10.2019 17:00:00 12,7 10,1 12,4 29 16 36 19 WSW 1008,9 21 0,0
12.10.2019 16:00:00 13,4 11,8 13,3 25 14 36 19 WSW 1008,8 18 0,4
12.10.2019 15:00:00 13,6 11,6 13,5 22 12 36 19 WSW 1008,6 13 0,1
12.10.2019 14:00:00 14,2 11,2 14,2 29 16 36 19 WSW 1008,4 18 0,0
12.10.2019 13:00:00 14,3 11,5 14,4 25 14 36 19 WSW 1007,8 17 0,0
12.10.2019 12:00:00 14,1 12,1 13,8 22 12 40 21 SW 1007,3 19 0,0
12.10.2019 11:00:00 13,1 11,4 13,1 29 16 40 21 SW 1006,7 25 0,0
12.10.2019 10:00:00 12,5 10,3 12,3 29 16 43 23 SW 1006,2 32 0,0
12.10.2019 09:00:00 12,2 10,4 11,9 25 14 36 19 SW 1005,6 31 0,0
12.10.2019 08:00:00 11,7 9,6 11,2 22 12 32 18 WSW 1005,2 19 0,2
12.10.2019 07:00:00 11,7 10,8 11,4 22 12 29 16 SW 1005,0 16 0,3
12.10.2019 06:00:00 11,5 9,4 11,1 18 10 29 16 W 1004,8 21 0,2
12.10.2019 05:00:00 11,9 10,7 11,6 22 12 25 14 WSW 1004,7 16 0,3
12.10.2019 04:00:00 11,6 9,7 11,3 18 10 29 16 WSW 1004,4 16 0,5
12.10.2019 03:00:00 12,8 11,0 12,5 18 10 25 14 W 1004,6 12 0,5
12.10.2019 02:00:00 13,7 12,6 13,3 18 10 25 14 W 1003,9 12 0,2
12.10.2019 01:00:00 13,6 12,7 13,3 22 12 36 19 WSW 1003,4 16 0,0
12.10.2019 00:00:00 13,9 12,8 13,6 25 14 40 21 WSW 1003,3 9 0,1
11.10.2019 23:00:00 14,1 13,3 13,9 32 18 65 35 W 1002,4 6 1,0
11.10.2019 22:00:00 15,0 14,0 14,6 47 25 65 35 SW 1001,8 7 0,0
11.10.2019 21:00:00 14,9 13,8 14,7 47 25 65 35 SW 1002,1 8 0,0
11.10.2019 20:00:00 14,4 13,8 13,9 47 25 61 33 SSW 1002,3 4,6 0,6
11.10.2019 19:00:00 14,7 13,8 14,1 43 23 61 33 SW 1002,6 7 0,2
11.10.2019 18:00:00 14,2 13,4 14,1 47 25 65 35 SW 1003,0 11 0,0
11.10.2019 17:00:00 14,2 13,4 14,2 50 27 65 35 SSW 1003,3 11 0,0
11.10.2019 16:00:00 14,5 13,5 14,1 50 27 65 35 SW 1003,7 10 0,4
11.10.2019 15:00:00 14,6 13,3 14,6 54 29 72 39 SW 1004,0 10 0,0
11.10.2019 14:00:00 14,3 13,4 14,1 50 27 68 37 SSW 1004,4 9 0,4
11.10.2019 13:00:00 14,3 13,5 14,3 47 25 65 35 SSW 1004,9 5 3,9
11.10.2019 12:00:00 13,2 12,7 13,3 36 19 50 27 SW 1005,1 2,2 4,8
11.10.2019 11:00:00 14,2 12,6 14,0 43 23 58 31 SW 1005,6 9 0,2
11.10.2019 10:00:00 14,9 13,7 14,7 43 23 54 29 SW 1005,7 7 0,1
11.10.2019 09:00:00 14,7 13,6 14,4 36 19 43 23 SW 1005,8 9 0,0
11.10.2019 08:00:00 14,4 13,4 14,2 32 18 50 27 SW 1005,9 7 0,3
11.10.2019 07:00:00 14,6 13,5 14,3 40 21 61 33 SW 1006,0 8 0,0
11.10.2019 06:00:00 15,0 13,7 14,3 43 23 61 33 WSW 1006,1 9 0,0
11.10.2019 05:00:00 14,0 13,1 13,7 43 23 65 35 SW 1006,0 9 0,5
11.10.2019 04:00:00 13,3 12,6 13,2 47 25 61 33 SSW 1005,8 3,4 1,7
11.10.2019 03:00:00 13,7 12,0 13,5 43 23 61 33 SSW 1006,6 9 0,0
11.10.2019 02:00:00 14,1 11,8 13,8 40 21 50 27 SW 1007,4 11 0,0
11.10.2019 01:00:00 14,1 11,5 13,7 43 23 50 27 SW 1007,8 11 0,0
11.10.2019 00:00:00 13,9 11,1 13,6 36 19 47 25 SW 1008,1 11 0,0
10.10.2019 23:00:00 13,4 11,1 12,9 29 16 40 21 SSW 1008,8 13 0,0
10.10.2019 22:00:00 13,3 10,5 13,0 32 18 50 27 SW 1009,1 15 0,0
10.10.2019 21:00:00 13,4 10,0 12,9 29 16 40 21 SW 1009,6 15 0,0
10.10.2019 20:00:00 13,0 9,4 12,4 25 14 43 23 WSW 1010,0 16 0,0
10.10.2019 19:00:00 13,2 8,3 12,4 32 18 47 25 WSW 1009,7 21 0,0
10.10.2019 18:00:00 13,1 8,2 12,7 29 16 47 25 WSW 1009,5 19 0,0
10.10.2019 17:00:00 13,3 8,4 12,9 32 18 50 27 WSW 1009,5 19 0,0
10.10.2019 16:00:00 13,7 8,2 13,7 36 19 54 29 W 1009,0 20 0,0
10.10.2019 15:00:00 14,0 9,2 14,5 36 19 58 31 W 1008,7 19 0,0
10.10.2019 14:00:00 14,2 9,1 14,6 40 21 54 29 W 1008,1 17 0,0
10.10.2019 13:00:00 13,4 9,1 13,3 32 18 58 31 W 1007,7 20 0,0
10.10.2019 12:00:00 13,7 8,8 13,3 36 19 58 31 W 1007,1 21 0,0
10.10.2019 11:00:00 11,3 8,8 10,4 29 16 65 35 W 1006,5 15 0,3
10.10.2019 10:00:00 13,4 9,4 12,6 32 18 43 23 W 1005,7 26 0,0
10.10.2019 09:00:00 12,2 8,0 11,5 29 16 43 23 W 1004,9 26 0,0
10.10.2019 08:00:00 11,7 8,3 10,8 29 16 36 19 WSW 1004,3 32 0,0
10.10.2019 07:00:00 11,1 7,6 10,3 25 14 40 21 W 1003,8 28 0,0
10.10.2019 06:00:00 11,2 8,1 10,3 22 12 29 16 W 1003,5 21 0,0
10.10.2019 05:00:00 11,2 7,9 10,3 22 12 29 16 WSW 1003,1 20 0,0
10.10.2019 04:00:00 10,3 7,6 9,5 18 10 36 19 W 1003,0 19 0,1
10.10.2019 03:00:00 9,3 6,1 8,5 18 10 32 18 W 1002,7 40 0,1
10.10.2019 02:00:00 9,8 7,1 9,4 29 16 58 31 WSW 1002,7 13 0,9
10.10.2019 01:00:00 9,5 7,3 7,9 14 8 29 16 W 1002,2 16 0,0
10.10.2019 00:00:00 10,7 7,1 9,9 29 16 40 21 W 1002,2 24 0,1
09.10.2019 23:00:00 8,2 6,8 7,7 14 8 29 16 WSW 1002,2 27 0,3
09.10.2019 22:00:00 10,6 8,2 8,5 22 12 36 19 W 1002,3 19 0,1
09.10.2019 21:00:00 10,5 8,5 9,9 25 14 54 29 WNW 1002,0 10 0,6
09.10.2019 20:00:00 9,5 7,7 8,9 11 6 29 16 WSW 1001,6 20 0,3

tt = temperature
td = dewpoint
tt 5cm = temperature 5cm
ff = wind speed
fx = gusts
dd = wind direction
ppp = reduced air pressure
vv = visibility
rr = precipitation

Next stations